Regional Weather Roundup
Issued by NWS

Home | Current Version | Previous Version | Text Only | Print | Product List | Glossary On
Versions: 1 2 3 4 5 6 7 8 9 10 11 12 13 14 15 16 17 18 19 20 21 22 23 24 25 26 27 28 29 30 31 32 33 34 35 36 37 38 39 40 41 42 43 44 45 46 47 48 49 50
170
ASUS43 KFSD 260610
RWRSD

WEATHER ROUNDUP FOR SOUTH DAKOTA
NATIONAL WEATHER SERVICE SIOUX FALLS SD
100 AM CDT SUN MAR 26 2017

NOTE: "FAIR" INDICATES FEW OR NO CLOUDS BELOW 12,000 FEET WITH NO
SIGNIFICANT WEATHER AND/OR OBSTRUCTIONS TO VISIBILITY.


SDZ001>005-009-010-012>017-260700-
NORTHWEST AND NORTH CENTRAL SOUTH DAKOTA

CITY           SKY/WX    TMP DP  RH WIND       PRES   REMARKS
BUFFALO          N/A     47  33  58 NE10      29.82R
FAITH            N/A     41  35  79 MISG      29.86S
MOBRIDGE       CLOUDY    40  33  76 SE8       29.90R
$$

SDZ012>016-024>037-041>051-057-063-072>074-260700-
SOUTHWEST AND SOUTH CENTRAL SOUTH DAKOTA

CITY           SKY/WX    TMP DP  RH WIND       PRES   REMARKS
RAPID CTY ARPT MOCLDY    48  31  51 N9        29.81R
PIERRE         CLOUDY    39  35  86 SE18      29.90S
CUSTER         CLOUDY    44  31  60 NW3       29.84S
ELLSWORTH AFB  CLOUDY    48  32  53 N8        29.82R
PHILIP         CLOUDY    41  35  79 E12       29.84S
PINE RIDGE     PTCLDY    49  29  46 SW6       29.81S
SPEARFISH      FAIR      45  34  65 W7        29.87R
WINNER         CLOUDY    41  38  89 SE14      29.90S
$$

SDZ004>011-016>023-039-040-260700-
NORTHEAST SOUTH DAKOTA

CITY           SKY/WX    TMP DP  RH WIND       PRES   REMARKS
ABERDEEN       CLOUDY    36  34  92 E6        29.98F FOG
WATERTOWN      CLOUDY    35  35 100 SE6       29.96S FOG
SISSETON         N/A     35  35 100 CALM      29.99F
$$

SDZ017-020-022-023-036>040-048>070-260700-
SOUTHEAST SOUTH DAKOTA

CITY           SKY/WX    TMP DP  RH WIND       PRES   REMARKS
SIOUX FALLS    CLOUDY    39  37  92 E8        29.96S
HURON          CLOUDY    40  38  93 SE8       29.95F
CHAMBERLAIN    CLOUDY    42  40  94 E10       29.92S
MITCHELL       CLOUDY    39  39 100 SE7       29.96F FOG
YANKTON        CLOUDY    37  36  93 E6        29.95F
$$

ABBREVIATIONS USED IN REMARKS
   TC - TEMPERATURE IN CELSIUS
  WCI - WIND CHILL INDEX
   HX - HEAT INDEX
  VSB - VISIBILITY





USA.gov is the U.S. government's official web portal to all federal, state and local government web resources and services.